Regional Weather Roundup
Issued by NWS

Home | Current Version | Previous Version | Graphics & Text | Print | Product List | Glossary On
Versions: 1 2 3 4 5 6 7 8 9 10 11 12 13 14 15 16 17 18 19 20 21 22 23 24 25 26 27 28 29 30 31 32 33 34 35 36 37 38 39 40 41 42 43 44 45 46 47 48 49 50
000
ASUS43 KLMK 120110
RWRKY
KENTUCKY REGIONAL WEATHER ROUNDUP
NATIONAL WEATHER SERVICE LOUISVILLE KY
800 PM EST THU FEB 11 2016

NOTE "FAIR" INDICATES FEW OR NO CLOUDS BELOW 12,000 FEET
WITH NO SIGNIFICANT WEATHER AND/OR OBSTRUCTIONS TO VISIBILITY.

KYZ001>023-026-027-061>063-070>075-120200-
WESTERN AND SOUTH CENTRAL KENTUCKY

CITY           SKY/WX    TMP DP  RH WIND       PRES   REMARKS
PADUCAH        CLOUDY    34  19  54 NE7       30.30S WCI  28
HENDERSON      CLOUDY    30  12  47 N5        30.33R WCI  25
OWENSBORO      PTCLDY    30  12  47 E6        30.32S WCI  24
HOPKINSVILLE   CLOUDY    32  20  62 N9        30.29R WCI  24
BOWLING GREEN  CLOUDY    33  17  51 N3        30.30R
GLASGOW        CLOUDY    30  18  59 CALM      30.29R
$$

KYZ024-025-028>034-038-045-046-053-120200-
NORTH CENTRAL KENTUCKY

CITY           SKY/WX    TMP DP  RH WIND       PRES   REMARKS
LOUISVILLE/SDF CLOUDY    29   8  41 NE7       30.31R WCI  22
LOUISVILLE/LOU PTCLDY    28   9  44 NE6       30.32R WCI  22
FORT KNOX      CLOUDY    28  11  49 N3        30.28S
$$

KYZ035>037-039>044-047>052-055>060-089>105-120200-
NORTHEAST KENTUCKY

CITY           SKY/WX    TMP DP  RH WIND       PRES   REMARKS
LEXINGTON      PTCLDY    23  14  68 CALM      30.28S
COVINGTON      PTCLDY    20   7  57 N7        30.30R WCI  11
FRANKFORT      PTCLDY    25  11  55 N3        30.29S
$$

KYZ054-064>069-076>088-106>120-120200-
SOUTHEAST KENTUCKY

CITY           SKY/WX    TMP DP  RH WIND       PRES   REMARKS
JACKSON        CLEAR     23   8  52 VRB3      30.25R
LONDON         CLEAR     27   9  46 N3        30.26R
SOMERSET       PTCLDY    28  14  54 NE7       30.29S WCI  21
MIDDLESBORO    CLEAR     27  20  74 NW5       30.25S WCI  22
MONTICELLO     PTCLDY    24  20  84 N14       30.28S WCI  12
$$




USA.gov is the U.S. government's official web portal to all federal, state and local government web resources and services.